• In Netherlands
  • List of Countries
  • For 7 days
  • Water Temperature
  • Satellite Maps
  • Weather Map
  • Weather Widgets
  • user-avatar
    Login

    Hourly Weather Zyablica

    Today, 16 August, Thursday

    Time Temperature Precipitation Wind Pressure Humidity
    00:00 +17°C° 0 mm 2 mps 743 mmHg 93%
    01:00 +16°C° 0 mm 2 mps 744 mmHg 94%
    02:00 +16°C° 0 mm 2 mps 744 mmHg 96%
    03:00 +16°C° 0 mm 2 mps 744 mmHg 96%
    04:00 +16°C° 0 mm 2 mps 744 mmHg 97%
    05:00 +16°C° 0 mm 2 mps 744 mmHg 97%
    06:00 +17°C° 0 mm 2 mps 745 mmHg 94%
    07:00 +18°C° 0 mm 2 mps 745 mmHg 90%
    08:00 +19°C° 0 mm 2 mps 745 mmHg 86%
    09:00 +20°C° 0.1 mm 2 mps 746 mmHg 83%
    10:00 +21°C° 0.1 mm 2 mps 746 mmHg 81%
    11:00 +21°C° 0.1 mm 3 mps 746 mmHg 78%
    12:00 +22°C° 0.2 mm 3 mps 746 mmHg 75%
    13:00 +24°C° 0.2 mm 3 mps 746 mmHg 71%
    14:00 +25°C° 0 mm 3 mps 746 mmHg 69%
    15:00 +24°C° 0.5 mm 3 mps 746 mmHg 71%
    16:00 +24°C° 0.5 mm 3 mps 747 mmHg 73%
    17:00 +24°C° 0.5 mm 3 mps 747 mmHg 75%
    18:00 +21°C° 0.2 mm 2 mps 747 mmHg 81%
    19:00 +20°C° 0.2 mm 2 mps 747 mmHg 86%
    20:00 +18°C° 0.2 mm 2 mps 747 mmHg 92%
    21:00 +18°C° 0 mm 2 mps 747 mmHg 93%
    22:00 +17°C° 0 mm 2 mps 747 mmHg 94%
    23:00 +17°C° 0 mm 2 mps 747 mmHg 95%

    Tomorrow, 17 August, Friday

    Time Temperature Precipitation Wind Pressure Humidity
    00:00 +16°C° 0 mm 2 mps 747 mmHg 96%
    01:00 +16°C° 0 mm 2 mps 747 mmHg 96%
    02:00 +16°C° 0 mm 2 mps 748 mmHg 97%
    03:00 +15°C° 0 mm 2 mps 748 mmHg 97%
    04:00 +15°C° 0 mm 2 mps 748 mmHg 97%
    05:00 +15°C° 0 mm 2 mps 748 mmHg 97%
    06:00 +16°C° 0 mm 2 mps 748 mmHg 94%
    07:00 +17°C° 0 mm 2 mps 748 mmHg 91%
    08:00 +19°C° 0 mm 3 mps 748 mmHg 87%
    09:00 +20°C° 0 mm 3 mps 748 mmHg 81%
    10:00 +22°C° 0 mm 3 mps 748 mmHg 75%
    11:00 +24°C° 0 mm 3 mps 748 mmHg 69%
    12:00 +25°C° 0 mm 3 mps 748 mmHg 67%
    13:00 +25°C° 0 mm 3 mps 748 mmHg 65%
    14:00 +26°C° 0 mm 3 mps 748 mmHg 64%
    15:00 +26°C° 0.3 mm 3 mps 748 mmHg 67%
    16:00 +25°C° 0.3 mm 3 mps 748 mmHg 71%
    17:00 +25°C° 0.3 mm 3 mps 747 mmHg 74%
    18:00 +22°C° 0.2 mm 3 mps 747 mmHg 80%
    19:00 +21°C° 0.2 mm 3 mps 747 mmHg 86%
    20:00 +19°C° 0.2 mm 2 mps 747 mmHg 92%
    21:00 +19°C° 0 mm 2 mps 747 mmHg 93%
    22:00 +18°C° 0 mm 3 mps 747 mmHg 93%
    23:00 +18°C° 0 mm 3 mps 747 mmHg 94%

    Day after tomorrow, 18 August, Saturday

    Time Temperature Precipitation Wind Pressure Humidity
    00:00 +17°C° 0 mm 3 mps 747 mmHg 94%
    01:00 +17°C° 0 mm 3 mps 747 mmHg 94%
    02:00 +17°C° 0 mm 3 mps 747 mmHg 94%
    03:00 +16°C° 0.4 mm 3 mps 747 mmHg 95%
    04:00 +16°C° 0.4 mm 3 mps 747 mmHg 95%
    05:00 +16°C° 0.4 mm 3 mps 747 mmHg 96%
    06:00 +17°C° 0.2 mm 3 mps 747 mmHg 93%
    07:00 +18°C° 0.2 mm 3 mps 747 mmHg 91%
    08:00 +19°C° 0.2 mm 3 mps 747 mmHg 88%
    09:00 +20°C° 0.2 mm 3 mps 747 mmHg 85%
    10:00 +22°C° 0.2 mm 4 mps 747 mmHg 81%
    11:00 +23°C° 0.2 mm 4 mps 747 mmHg 77%
    12:00 +23°C° 1.1 mm 4 mps 747 mmHg 76%
    13:00 +25°C° 1.1 mm 4 mps 747 mmHg 76%
    14:00 +25°C° 1.1 mm 4 mps 746 mmHg 75%
    15:00 +25°C° 0.8 mm 3 mps 746 mmHg 78%
    16:00 +24°C° 0.8 mm 3 mps 746 mmHg 81%
    17:00 +22°C° 0.8 mm 3 mps 746 mmHg 84%
    18:00 +21°C° 0.2 mm 3 mps 746 mmHg 87%
    19:00 +20°C° 0.2 mm 2 mps 746 mmHg 91%
    20:00 +19°C° 0.2 mm 2 mps 746 mmHg 94%
    21:00 +19°C° 0 mm 2 mps 746 mmHg 95%
    22:00 +18°C° 0 mm 2 mps 746 mmHg 95%
    23:00 +18°C° 0 mm 2 mps 746 mmHg 95%

    19 August, Sunday

    Time Temperature Precipitation Wind Pressure Humidity
    00:00 +18°C° 0 mm 2 mps 746 mmHg 95%
    01:00 +18°C° 0 mm 2 mps 746 mmHg 95%
    02:00 +17°C° 0 mm 2 mps 746 mmHg 95%
    03:00 +17°C° 0.1 mm 2 mps 746 mmHg 96%
    04:00 +17°C° 0.1 mm 2 mps 746 mmHg 96%
    05:00 +17°C° 0.1 mm 2 mps 746 mmHg 96%
    06:00 +18°C° 0.3 mm 2 mps 746 mmHg 94%
    07:00 +19°C° 0.3 mm 2 mps 746 mmHg 91%
    08:00 +20°C° 0.3 mm 2 mps 746 mmHg 89%
    09:00 +23°C° 0.8 mm 2 mps 746 mmHg 83%
    10:00 +24°C° 0.8 mm 2 mps 746 mmHg 78%
    11:00 +25°C° 0.8 mm 2 mps 745 mmHg 73%
    12:00 +26°C° 0.5 mm 2 mps 745 mmHg 68%
    13:00 +27°C° 0.5 mm 2 mps 745 mmHg 63%
    14:00 +27°C° 0.5 mm 2 mps 745 mmHg 58%
    15:00 +27°C° 0.3 mm 2 mps 745 mmHg 62%
    16:00 +26°C° 0.3 mm 2 mps 745 mmHg 66%
    17:00 +26°C° 0.3 mm 2 mps 744 mmHg 69%
    18:00 +24°C° 0.4 mm 2 mps 745 mmHg 76%
    19:00 +21°C° 0.4 mm 2 mps 745 mmHg 82%
    20:00 +19°C° 0.4 mm 2 mps 745 mmHg 88%
    21:00 +19°C° 0 mm 2 mps 745 mmHg 90%
    22:00 +18°C° 0 mm 2 mps 745 mmHg 92%
    23:00 +17°C° 0 mm 2 mps 745 mmHg 93%

    20 August, Monday

    Time Temperature Precipitation Wind Pressure Humidity
    00:00 +17°C° 0 mm 2 mps 745 mmHg 94%
    01:00 +16°C° 0 mm 2 mps 745 mmHg 95%
    02:00 +16°C° 0 mm 2 mps 745 mmHg 95%
    03:00 +16°C° 0 mm 2 mps 745 mmHg 96%
    04:00 +16°C° 0 mm 2 mps 745 mmHg 96%
    05:00 +16°C° 0 mm 2 mps 745 mmHg 97%
    06:00 +16°C° 0 mm 2 mps 745 mmHg 94%
    07:00 +17°C° 0 mm 3 mps 746 mmHg 91%
    08:00 +18°C° 0 mm 3 mps 746 mmHg 88%
    09:00 +18°C° 0 mm 3 mps 746 mmHg 85%
    10:00 +19°C° 0 mm 3 mps 746 mmHg 82%
    11:00 +19°C° 0 mm 3 mps 746 mmHg 79%
    12:00 +20°C° 0 mm 3 mps 746 mmHg 74%
    13:00 +21°C° 0 mm 3 mps 746 mmHg 68%
    14:00 +22°C° 0 mm 3 mps 746 mmHg 63%
    15:00 +21°C° 0 mm 3 mps 746 mmHg 63%
    16:00 +21°C° 0 mm 3 mps 746 mmHg 63%
    17:00 +21°C° 0 mm 3 mps 746 mmHg 63%
    18:00 +20°C° 0 mm 2 mps 747 mmHg 67%
    19:00 +18°C° 0 mm 2 mps 747 mmHg 72%
    20:00 +16°C° 0 mm 2 mps 747 mmHg 76%
    21:00 +16°C° 0 mm 2 mps 747 mmHg 78%
    22:00 +15°C° 0 mm 2 mps 747 mmHg 80%
    23:00 +14°C° 0 mm 2 mps 747 mmHg 82%

    21 August, Tuesday

    Time Temperature Precipitation Wind Pressure Humidity
    00:00 +14°C° 0 mm 2 mps 747 mmHg 82%
    01:00 +14°C° 0 mm 2 mps 747 mmHg 82%
    02:00 +14°C° 0 mm 2 mps 747 mmHg 83%
    03:00 +14°C° 0 mm 1 mps 747 mmHg 82%
    04:00 +14°C° 0 mm 1 mps 747 mmHg 82%
    05:00 +14°C° 0 mm 1 mps 747 mmHg 82%
    06:00 +15°C° 0 mm 1 mps 748 mmHg 78%
    07:00 +18°C° 0 mm 1 mps 748 mmHg 75%
    08:00 +19°C° 0 mm 1 mps 748 mmHg 71%
    09:00 +20°C° 0 mm 1 mps 748 mmHg 66%
    10:00 +21°C° 0 mm 2 mps 748 mmHg 60%
    11:00 +23°C° 0 mm 2 mps 748 mmHg 55%
    12:00 +23°C° 0 mm 2 mps 748 mmHg 55%
    13:00 +24°C° 0 mm 2 mps 748 mmHg 55%
    14:00 +24°C° 0 mm 2 mps 748 mmHg 55%
    15:00 +24°C° 0 mm 2 mps 747 mmHg 57%
    16:00 +24°C° 0 mm 2 mps 747 mmHg 59%
    17:00 +24°C° 0 mm 2 mps 747 mmHg 62%
    18:00 +21°C° 0 mm 2 mps 747 mmHg 68%
    19:00 +20°C° 0 mm 2 mps 747 mmHg 74%
    20:00 +18°C° 0 mm 2 mps 747 mmHg 81%
    21:00 +18°C° 0 mm 2 mps 747 mmHg 83%
    22:00 +17°C° 0 mm 2 mps 747 mmHg 85%
    23:00 +17°C° 0 mm 2 mps 747 mmHg 87%
    Show more